Theta_e
315 315 315 318 318 320 322 322 321 320 320 317 317 318 318 318 319 319 320 321 323 325 322 325 332 329 327 327 329 327 325 330 327 325 328 330 329 330 330 327 330 332 332 333 333 331 329 332 333 330 325 321 320 320 318 314 312 310 310 313 319 325 328 329 330 331 331 331 324 316 317 320 320 322 326 329 330 329 329 326 322 319 319 321 322 318 312 313 314 313 312 311 310 310 310 310 310
315 315 317 319 318 320 323 323 321 319 317 315 317 319 317 318 319 321 322 322 323 322 321 327 331 327 325 324 326 326 328 329 325 328 330 329 330 331 330 327 329 331 331 332 331 330 330 332 331 328 324 321 321 321 319 316 313 312 310 310 315 323 326 328 329 332 332 332 328 318 317 322 323 325 326 328 328 328 327 323 320 319 324 326 323 321 316 312 313 313 311 310 310 310 310 310 310
314 316 318 320 320 321 323 323 320 317 315 314 317 318 317 318 320 321 321 321 321 320 322 327 329 327 324 323 324 324 330 327 325 331 331 330 331 330 330 328 329 330 329 329 328 330 332 332 330 327 324 323 322 322 320 317 314 313 311 311 313 321 326 327 329 331 332 331 329 321 318 322 323 323 323 323 325 327 327 323 321 319 320 321 318 317 316 313 313 313 310 310 310 310 311 310 311
314 317 319 321 323 323 324 322 321 317 315 314 316 317 318 319 321 319 320 321 320 319 323 327 329 326 324 325 324 322 329 329 329 333 331 332 333 330 330 329 329 329 326 326 328 332 333 331 329 327 326 324 323 323 321 319 315 313 312 311 311 319 325 326 328 330 332 331 328 324 318 320 319 318 321 322 321 322 323 322 319 316 313 312 311 311 311 310 311 311 310 310 310 310 311 311 312
315 319 319 322 324 324 323 321 320 318 316 316 316 317 319 319 320 319 320 321 320 319 323 327 328 326 325 326 325 324 328 329 331 332 332 333 332 329 330 329 329 327 324 326 331 334 333 330 329 328 327 325 324 324 322 320 317 314 313 313 311 316 323 324 327 329 330 330 327 325 318 316 317 318 321 319 316 317 320 320 318 317 315 310 308 311 314 315 312 309 310 310 310 311 311 312 314
318 320 320 320 322 322 321 319 318 318 317 317 317 317 318 318 319 321 322 322 319 318 322 325 326 326 328 327 323 324 328 330 332 332 333 332 330 329 329 329 329 325 324 329 333 334 333 330 329 328 327 325 325 324 323 321 318 315 314 313 312 313 322 327 329 330 330 330 326 322 317 315 316 317 320 317 315 319 320 319 320 320 320 315 310 314 320 321 316 311 311 311 312 312 313 314 315
319 320 320 320 321 321 322 319 318 318 316 315 317 317 318 318 320 322 322 321 319 317 321 323 323 325 326 326 326 325 327 330 332 332 332 331 329 330 329 330 329 325 326 330 334 334 332 330 329 329 328 325 325 324 323 322 319 316 314 314 313 312 321 328 329 330 330 327 322 318 316 315 315 317 320 319 318 320 320 319 321 320 317 315 314 317 320 319 317 314 313 313 313 313 314 315 316
320 320 320 321 321 320 321 320 318 318 315 313 314 316 317 319 320 323 322 321 319 318 320 321 322 323 322 325 330 329 327 328 330 331 331 330 328 329 329 330 329 326 327 330 334 334 332 330 330 330 329 326 324 324 323 323 320 317 315 314 314 312 315 320 323 325 324 321 318 317 316 315 315 318 320 319 319 319 319 319 319 316 313 314 316 318 317 317 317 316 315 314 314 315 315 316 317
320 319 320 322 321 320 319 319 318 317 315 314 314 315 316 317 320 323 322 320 318 318 321 321 321 322 322 325 330 330 328 327 328 330 330 329 328 329 329 330 329 327 328 329 332 334 332 331 331 330 328 326 325 324 324 324 321 318 315 314 315 315 313 314 315 316 320 321 317 315 315 314 314 318 319 317 319 319 319 318 315 313 314 317 319 319 318 317 317 316 315 314 314 315 316 317 318
319 319 321 322 320 318 317 317 318 316 315 316 316 316 316 316 320 323 322 319 317 319 321 321 319 320 323 326 329 330 330 328 329 330 330 329 328 329 328 329 330 329 329 330 331 333 332 332 331 329 328 326 326 325 324 324 323 319 316 315 314 316 315 313 313 312 319 321 316 313 313 312 312 316 317 313 315 317 318 317 314 314 317 320 320 319 318 318 317 316 315 315 314 315 316 317 318
320 320 320 321 319 317 316 317 317 317 316 316 316 316 315 315 319 321 320 318 316 319 321 320 318 320 323 326 328 329 329 329 330 330 329 330 328 328 329 329 330 329 330 330 330 331 332 333 331 329 327 326 326 325 324 325 323 321 318 317 315 315 316 315 314 312 313 314 313 311 310 310 310 312 313 309 309 312 315 316 316 317 320 320 320 319 318 318 318 318 317 316 315 314 315 317 319
321 321 321 320 318 317 317 317 318 318 317 317 317 316 315 315 319 320 319 317 317 319 320 320 319 321 322 325 326 326 328 329 330 330 329 330 329 328 329 329 330 330 330 330 330 330 331 333 332 330 328 326 326 326 324 324 324 322 320 318 317 315 315 316 316 314 311 310 309 308 307 309 309 309 310 309 308 308 311 314 317 319 319 319 319 319 319 319 319 319 319 318 315 314 315 317 319
321 322 321 320 318 318 317 318 318 319 319 318 318 316 315 316 319 319 319 318 318 320 320 320 319 319 321 323 323 325 329 329 330 331 330 330 329 328 329 329 329 330 331 331 331 330 330 332 332 331 330 327 327 326 324 325 325 324 322 320 319 317 316 315 317 317 314 311 309 307 306 307 307 307 308 308 308 307 309 313 316 318 318 319 319 319 319 320 320 320 320 319 317 315 314 316 318
320 321 322 319 316 317 317 318 318 318 318 318 317 315 315 316 317 317 318 318 318 319 319 319 318 319 320 320 322 326 330 329 330 331 330 330 329 329 329 329 329 330 331 331 331 330 330 331 333 332 330 330 328 327 325 324 324 325 324 322 320 320 318 317 316 317 317 315 312 308 307 306 307 307 307 306 307 307 308 311 316 317 318 319 319 319 320 320 320 320 320 320 319 317 315 315 316
319 319 321 320 316 317 317 317 319 318 318 318 315 314 315 316 316 316 317 318 318 317 317 318 318 319 319 319 322 326 328 328 330 331 330 330 330 329 329 329 330 330 330 331 331 331 330 330 332 332 331 331 330 329 328 325 324 324 325 324 322 321 321 320 318 317 317 318 315 312 309 308 307 307 307 307 307 309 309 310 314 317 318 319 319 319 319 320 320 320 320 320 319 318 316 315 315
318 319 321 320 317 317 317 316 318 318 317 317 315 314 316 315 315 316 316 316 317 316 317 318 318 318 317 318 319 321 325 327 329 330 330 331 330 330 329 329 330 330 330 330 330 330 330 329 330 331 331 331 330 329 329 328 324 324 325 325 324 323 322 322 320 319 317 318 317 315 312 311 310 309 309 309 310 311 312 312 314 317 318 319 319 319 320 320 320 321 321 320 320 318 317 315 314
318 319 321 319 318 318 317 317 317 317 317 316 313 314 317 316 314 315 315 315 316 316 316 318 318 317 316 317 317 318 323 327 330 331 330 331 330 331 330 329 330 330 330 330 330 330 330 329 328 329 329 330 330 329 329 329 326 324 324 325 325 325 323 323 322 322 320 318 318 317 316 315 313 312 313 313 313 314 315 316 316 317 318 319 319 320 319 320 320 320 321 320 320 319 318 317 316
319 320 320 318 318 318 318 317 317 317 317 315 313 315 318 317 314 314 315 315 315 315 316 317 317 317 317 317 317 317 321 326 330 331 331 331 331 331 331 330 330 330 330 330 330 329 329 329 328 327 327 326 329 329 329 330 327 324 324 325 325 326 325 324 323 323 323 322 320 318 318 318 316 315 316 316 317 316 316 317 317 317 317 318 319 319 320 320 320 320 320 320 320 320 319 319 317
319 320 319 319 320 318 316 317 316 315 317 316 313 315 317 316 315 314 315 316 315 315 316 316 317 318 317 317 317 317 319 324 328 330 330 331 331 330 331 330 330 329 329 329 329 329 328 328 328 327 326 324 325 326 328 329 326 324 324 324 325 326 326 326 325 324 324 324 323 321 320 319 318 317 318 318 319 319 318 318 318 318 318 318 318 319 319 319 320 320 320 320 320 320 320 319 318
319 319 319 320 319 316 313 315 315 313 315 315 314 314 315 315 314 315 316 316 315 316 317 316 317 317 317 317 317 317 318 320 326 329 329 329 329 329 330 329 329 329 329 329 328 329 329 328 327 327 326 325 325 323 324 325 324 324 324 324 325 325 326 326 326 325 324 325 324 324 323 321 319 319 319 319 319 319 320 319 319 319 319 319 318 318 318 319 319 319 320 320 320 320 320 319 319
318 318 319 318 316 316 313 312 313 312 314 315 314 313 314 314 314 315 316 316 316 316 317 316 317 317 317 317 317 317 317 318 322 327 328 327 328 329 330 329 328 328 328 329 328 328 329 329 328 327 327 327 327 325 323 323 322 323 323 324 324 324 326 326 326 326 325 325 325 325 325 324 322 320 319 319 319 320 320 320 320 320 320 319 318 318 318 318 319 319 319 319 319 320 320 319 319
317 315 315 315 314 315 313 311 312 312 313 314 313 314 314 313 314 314 315 316 317 317 316 316 316 316 315 316 316 317 317 317 318 322 324 324 325 327 330 330 329 329 328 328 328 328 328 328 328 328 328 328 328 327 325 323 322 322 323 324 325 324 325 326 326 327 326 326 326 326 325 325 325 323 322 321 320 319 320 320 320 320 320 319 318 318 318 318 318 318 318 318 318 319 320 320 320
318 314 311 312 312 314 312 311 312 312 313 313 314 315 314 314 314 314 314 316 317 316 315 315 316 315 315 315 316 316 317 317 315 317 318 319 320 322 325 327 327 327 326 326 326 326 327 327 328 328 328 329 329 329 328 326 323 323 323 323 324 325 325 325 326 326 327 327 327 327 326 326 326 325 325 324 322 321 320 320 320 320 320 319 318 318 318 317 317 318 318 318 317 318 319 319 320
317 315 312 312 311 312 312 311 312 312 313 313 313 314 313 314 315 313 313 316 316 315 315 314 315 315 315 315 315 316 316 316 315 314 315 316 317 318 323 325 326 325 323 324 324 324 325 326 327 327 328 329 330 330 329 328 325 324 324 324 324 325 325 325 326 326 327 327 327 327 327 327 326 326 326 326 325 324 322 320 320 320 320 320 319 318 318 317 317 317 317 317 317 317 317 318 319
316 315 312 311 311 311 311 311 311 311 312 312 313 314 313 313 313 312 313 315 315 315 315 314 314 315 315 315 315 315 316 316 316 315 314 316 317 318 322 325 325 322 319 320 321 322 323 325 326 325 326 327 329 330 330 330 328 327 327 326 325 325 326 326 326 326 327 327 328 328 327 327 327 327 326 326 326 326 325 323 322 321 320 320 320 319 319 318 318 317 316 316 316 316 316 317 318
315 314 312 311 310 310 311 310 311 311 311 312 313 313 312 312 312 313 314 314 314 315 315 315 314 314 315 315 315 315 315 315 316 315 315 315 315 316 317 319 320 318 316 317 318 319 320 322 324 324 324 325 326 328 329 330 329 329 328 328 327 326 326 326 327 327 327 327 328 328 328 328 327 327 327 326 326 326 326 326 325 323 321 321 320 320 320 319 319 318 317 316 315 316 316 317 317
313 312 311 311 310 309 310 310 310 311 311 311 313 313 311 311 312 314 314 314 314 314 314 314 314 314 314 315 315 315 315 315 316 316 315 315 315 315 314 315 315 315 316 316 316 317 318 319 321 322 323 324 324 325 326 327 328 329 329 329 329 328 328 328 328 328 328 328 328 328 329 328 328 328 327 327 327 326 326 327 327 326 324 323 321 321 321 321 320 319 319 317 316 316 316 316 317
312 312 312 311 311 310 310 311 310 311 312 312 313 312 311 310 312 315 314 314 314 314 314 314 314 314 314 314 314 315 315 315 316 315 315 315 315 314 314 314 314 314 314 315 315 316 317 318 318 320 320 321 323 324 324 324 325 327 328 329 329 328 329 329 329 329 329 329 329 329 329 329 329 328 328 328 327 327 327 326 327 327 327 325 324 323 322 321 321 320 320 319 319 319 319 318 317
312 313 314 311 312 313 311 311 311 311 312 312 312 312 312 312 313 314 314 314 314 314 314 314 314 314 314 314 314 314 315 315 315 315 315 314 314 314 314 314 314 315 314 315 315 315 316 316 317 317 318 318 319 321 322 322 323 323 325 327 327 328 328 328 329 330 330 330 329 329 329 330 330 329 329 328 328 328 327 327 326 327 328 327 326 325 324 323 322 322 321 320 321 322 322 321 321
312 312 314 313 313 313 311 310 311 311 312 311 311 313 314 314 313 313 313 313 314 313 314 314 314 314 314 314 314 314 315 315 315 314 314 314 314 314 314 314 314 314 315 315 315 315 315 316 316 316 316 316 317 318 320 320 321 321 322 323 325 326 326 327 327 328 330 330 330 330 330 330 331 330 330 329 329 328 328 328 327 327 327 327 327 327 326 325 324 324 323 322 323 323 323 322 322
312 312 313 314 314 313 311 310 311 312 312 311 310 312 314 313 311 311 312 313 313 313 314 314 314 314 314 314 314 314 314 315 315 315 315 315 315 314 314 314 314 314 315 315 315 315 315 315 316 315 316 316 316 316 317 318 318 319 319 320 322 323 323 324 324 326 328 329 330 330 330 330 330 330 331 331 330 330 329 328 328 327 327 326 327 326 326 325 325 325 324 324 324 324 323 323 322
311 312 314 314 313 313 311 309 309 312 312 310 310 312 314 313 312 310 312 313 312 313 313 313 314 314 314 314 314 314 314 315 315 315 315 315 315 315 315 314 315 314 314 314 315 315 315 315 315 315 315 315 315 315 316 316 317 317 317 317 319 320 322 324 324 324 324 326 328 329 330 330 330 330 330 330 330 329 329 329 328 327 327 327 326 326 326 326 325 325 325 324 324 324 324 323 323
311 312 316 314 313 313 312 310 308 310 312 311 310 312 313 315 313 311 312 313 312 312 313 313 313 314 314 314 314 314 314 314 315 315 315 315 315 315 315 315 315 315 315 314 314 315 315 315 315 315 315 315 315 315 315 315 316 316 316 316 316 317 319 322 325 326 323 322 323 325 327 328 328 329 329 329 328 328 328 327 327 327 327 326 326 325 325 325 324 325 325 324 324 323 322 321 322
312 313 314 313 312 311 312 312 309 309 311 312 311 311 312 314 313 312 312 312 312 312 313 313 313 313 313 314 314 314 314 314 314 315 315 315 315 315 315 315 315 315 315 315 315 315 315 315 315 315 315 315 315 315 315 315 315 315 315 315 315 315 316 316 320 324 322 319 320 320 320 323 324 324 326 328 327 327 326 325 326 326 326 325 324 324 324 324 324 325 325 326 325 323 322 322 323
313 313 313 311 311 311 311 312 310 309 311 312 312 311 312 314 314 313 312 311 311 312 313 314 314 314 314 314 314 314 314 314 314 315 315 315 315 315 315 315 315 315 315 315 315 315 315 315 315 315 315 315 315 315 315 315 315 315 315 315 315 315 315 314 317 321 320 320 323 319 315 321 326 325 326 329 328 325 325 326 326 323 323 324 323 323 324 324 324 324 324 325 326 324 323 324 324
314 314 314 313 312 311 311 311 308 309 312 313 312 313 313 314 314 314 314 312 311 312 313 314 314 315 314 315 315 315 314 314 314 315 315 315 315 315 315 315 315 315 315 315 315 315 315 315 315 315 315 315 315 315 314 314 314 314 314 314 315 314 314 315 317 318 319 322 326 322 316 321 330 330 328 326 325 324 326 329 328 324 323 324 324 324 325 325 324 323 323 324 325 325 325 324 325
313 313 313 314 314 311 310 310 308 308 312 313 313 313 313 313 314 314 315 312 311 312 313 314 315 315 315 316 315 315 315 315 315 314 314 315 314 315 315 314 315 315 315 315 315 315 315 315 315 315 315 314 315 314 314 314 314 314 314 314 314 315 316 316 315 316 319 325 330 326 318 321 330 332 327 323 322 323 327 329 328 326 325 325 327 327 327 326 324 323 323 324 325 326 325 325 324
313 312 312 313 314 312 310 310 308 307 311 313 311 311 313 313 314 315 314 313 312 313 314 315 315 315 316 316 316 316 316 315 315 315 315 315 315 315 315 315 315 315 315 315 315 315 315 315 315 315 315 315 315 314 314 314 314 314 314 314 314 315 316 316 316 317 321 327 329 324 318 323 331 329 325 326 327 326 325 326 327 328 326 325 328 328 327 326 325 325 325 325 325 325 326 325 323
313 313 312 312 313 312 310 309 308 307 311 313 311 311 314 315 315 315 315 314 314 314 314 315 315 315 315 315 316 315 315 315 315 316 315 316 315 315 315 315 315 315 315 315 315 315 315 315 315 315 315 315 315 315 315 314 314 314 314 314 314 315 315 315 316 317 320 322 321 319 317 322 326 325 326 329 331 330 326 325 328 329 327 326 327 329 328 327 326 325 324 324 326 324 324 324 322
313 314 313 312 313 313 312 311 309 307 308 311 311 312 315 315 314 314 313 312 312 312 312 313 313 314 315 315 315 315 315 315 315 315 315 315 315 315 315 314 314 314 314 314 314 314 314 314 314 315 315 315 315 315 315 315 314 314 314 314 314 314 315 315 316 316 317 317 317 317 317 320 323 324 328 331 332 332 326 325 330 330 329 328 327 328 329 328 327 325 321 322 324 323 323 323 321
314 315 315 314 313 313 312 311 309 308 307 308 310 312 314 315 314 314 311 307 308 309 310 311 312 313 314 314 314 314 314 314 315 315 314 314 314 314 314 314 314 314 314 314 313 313 313 314 314 315 315 315 315 315 315 315 315 314 314 315 314 315 315 315 316 315 316 316 317 317 318 323 326 324 326 328 331 329 323 325 331 331 330 328 325 326 328 329 328 324 320 321 323 322 323 325 323
313 315 315 314 313 313 312 311 311 312 311 309 309 311 312 315 316 315 312 309 310 310 309 310 311 311 312 312 312 313 313 313 314 314 314 314 314 314 314 314 314 314 314 314 314 313 313 313 314 315 315 315 315 315 315 315 315 315 315 315 315 315 315 315 316 316 316 316 317 318 318 322 325 323 323 325 327 325 321 326 332 330 328 324 320 322 326 329 327 322 320 322 324 324 323 323 324
312 313 313 311 313 315 314 314 314 313 312 309 308 311 312 314 316 315 312 313 314 312 311 311 310 311 311 312 312 312 312 312 313 313 314 314 314 314 314 314 314 314 314 314 314 313 313 313 314 314 314 315 315 315 315 315 315 315 315 315 315 315 315 315 315 315 316 317 317 318 319 319 321 322 323 324 325 323 321 324 327 326 325 323 320 320 323 326 326 324 323 321 322 325 324 322 323
313 313 311 311 315 318 316 315 314 312 312 310 310 312 312 312 315 314 311 312 314 313 313 312 311 312 313 313 313 313 313 313 313 313 313 313 313 314 313 314 314 314 314 314 314 313 313 313 313 313 314 314 315 315 315 315 315 315 315 315 315 315 315 315 316 316 316 317 317 317 318 319 320 321 323 324 324 324 322 321 323 324 326 328 324 320 323 326 327 327 326 323 321 323 324 323 323
313 309 310 312 314 317 317 315 313 311 311 312 312 312 311 311 316 314 309 312 314 314 314 313 313 313 313 313 313 313 313 313 313 313 313 313 313 313 313 314 314 314 314 314 313 313 313 313 313 313 313 314 315 315 315 315 315 315 315 315 315 315 316 315 315 316 316 316 316 317 317 318 319 320 322 324 325 325 324 324 326 328 329 330 327 324 326 328 328 327 326 324 321 320 321 322 322
310 306 309 312 313 314 314 314 312 310 311 313 311 309 309 311 319 317 310 312 315 314 313 312 313 312 312 313 313 314 313 311 312 312 312 312 312 313 314 314 314 314 314 314 314 313 313 313 313 313 313 314 314 314 315 315 315 315 315 315 316 315 316 316 316 316 316 316 316 316 316 316 317 319 320 322 324 325 325 326 327 327 327 327 325 324 325 325 324 324 323 322 321 321 322 322 323
308 310 312 313 313 313 312 311 310 310 312 311 307 307 308 309 316 318 313 312 313 313 313 313 313 312 312 313 313 314 314 313 312 312 312 313 313 313 314 315 315 315 315 315 314 314 314 314 314 314 314 314 314 315 315 315 315 316 316 316 316 316 316 316 316 315 315 315 315 315 315 315 316 317 318 320 322 323 325 325 326 326 326 325 323 323 323 321 320 321 322 323 324 325 324 324 324
309 314 314 313 313 312 311 310 310 312 312 308 305 305 307 308 313 315 311 311 311 311 313 313 313 313 312 312 312 313 314 314 314 314 314 314 314 315 315 315 315 315 315 315 315 315 315 315 315 315 316 315 316 316 316 316 316 316 316 316 316 315 315 315 315 315 315 315 315 315 315 315 315 315 316 317 318 320 322 323 324 324 324 324 323 323 321 320 321 323 324 325 325 324 323 323 322
311 314 313 313 313 312 312 312 311 312 310 306 304 305 307 309 312 312 311 312 310 309 311 311 312 312 312 312 312 312 313 314 314 314 315 315 315 315 315 316 316 316 316 316 316 316 316 316 316 316 316 316 316 316 316 316 316 316 316 316 316 315 316 316 315 315 315 315 314 314 314 314 314 314 314 315 316 317 319 320 321 322 323 323 322 322 321 321 323 323 323 322 322 321 320 319 318
312 314 313 313 313 312 313 311 309 310 309 305 303 305 309 311 312 312 312 312 309 307 308 309 310 311 312 312 312 312 313 314 314 314 314 315 315 315 316 316 316 316 316 316 316 316 316 316 316 316 316 316 316 316 316 316 316 316 316 316 316 316 316 316 316 315 315 315 314 314 314 314 314 313 313 314 314 315 316 317 318 319 320 321 321 321 321 322 322 321 320 319 318 318 317 316 316
312 314 314 313 313 313 312 311 310 310 309 305 304 307 311 312 311 312 310 308 308 308 308 308 309 311 312 312 312 312 313 314 314 314 314 314 315 315 316 316 315 315 315 315 315 315 315 315 315 315 315 315 315 315 315 316 316 316 315 316 316 315 316 315 315 315 315 315 314 314 314 314 314 313 313 313 313 314 314 314 315 316 316 317 318 319 319 319 319 318 317 316 315 315 314 314 313
310 310 311 312 313 312 309 307 308 308 308 308 307 309 312 312 311 311 309 307 307 307 307 309 310 311 312 312 312 312 313 314 314 314 314 314 314 315 315 315 315 315 315 315 316 315 316 316 316 316 316 316 316 316 316 316 316 316 315 316 316 315 315 315 315 315 315 315 315 315 314 314 314 314 314 313 313 313 313 313 313 313 313 314 314 315 315 315 315 314 314 313 313 312 312 312 312
310 309 310 310 312 314 309 305 304 305 308 310 309 310 311 310 311 312 311 309 309 308 308 308 310 311 312 312 312 312 312 313 314 314 314 314 315 314 315 315 315 315 315 316 316 316 316 316 316 316 316 316 316 316 316 315 315 315 315 315 316 316 316 316 315 315 315 315 315 315 315 314 314 314 314 313 313 313 313 313 313 313 312 312 313 313 313 313 313 312 312 312 312 311 311 311 311
311 311 311 309 309 312 311 308 307 307 309 310 309 309 310 309 311 314 312 310 311 310 309 308 309 310 312 312 312 311 311 313 313 314 314 314 314 315 315 315 315 316 316 316 316 316 316 316 316 316 316 315 315 315 315 315 315 315 315 315 315 316 316 316 316 316 316 316 315 315 315 314 314 314 313 313 313 313 313 312 312 312 312 312 312 312 312 312 311 311 311 311 311 311 311 311 311
309 311 310 309 311 311 309 309 310 310 310 310 309 307 307 309 311 313 312 311 312 311 310 309 309 311 311 311 311 310 310 312 313 313 314 314 314 315 315 315 316 316 316 316 316 316 316 315 315 315 315 315 315 315 315 315 315 315 315 315 315 316 316 316 316 316 316 316 316 315 315 315 314 313 313 313 313 313 312 312 312 312 312 312 312 312 312 311 311 311 311 311 311 311 311 311 311
306 307 308 310 312 311 310 309 310 310 309 310 309 307 308 311 311 311 312 311 311 311 311 312 311 311 311 311 311 311 310 313 314 314 314 315 315 315 315 315 316 315 316 316 315 315 315 315 315 315 315 315 315 315 315 315 315 315 315 315 315 315 316 316 316 316 316 316 316 316 316 315 315 314 313 313 313 313 312 312 312 312 312 312 312 312 311 311 311 311 311 311 311 311 311 311 310
307 308 309 310 309 309 310 309 308 310 309 309 309 308 310 311 310 310 311 310 309 309 310 312 311 310 310 311 311 311 311 313 315 314 315 315 315 315 315 315 315 315 315 315 315 315 315 315 315 314 314 314 314 314 314 315 315 315 315 315 315 315 316 316 316 316 316 316 316 316 316 316 315 314 314 313 313 313 312 312 312 312 312 312 312 312 311 311 311 311 311 311 311 310 310 310 310
311 309 310 312 311 310 311 310 307 307 308 308 308 308 311 312 309 308 309 308 308 307 307 308 309 308 310 311 312 312 313 314 314 315 315 315 315 315 315 315 315 315 315 315 314 315 315 314 314 314 314 314 314 315 315 315 315 315 315 315 315 315 315 315 315 316 315 316 316 316 316 316 315 315 314 314 313 312 312 312 312 312 312 312 312 312 312 312 312 312 312 311 311 311 311 311 310
Wind_Speed
1 3 4 5 5 3 2 0 1 2 1 1 2 1 4 2 2 4 6 5 4 6 4 5 12 13 5 0 1 3 3 1 3 2 3 12 21 21 18 19 17 16 15 14 14 13 13 12 11 8 7 7 9 11 12 13 14 13 11 11 13 14 16 16 14 11 9 10 12 12 13 13 14 15 16 16 17 18 15 14 14 14 16 16 15 16 17 16 16 16 17 18 18 18 17 18 17
1 4 6 6 4 2 1 1 2 2 2 2 3 0 4 3 3 6 9 6 3 7 7 8 13 12 3 1 2 2 1 2 2 4 9 21 24 21 19 18 17 16 15 14 14 14 12 11 11 8 7 8 9 10 12 13 14 13 12 11 12 14 16 15 13 11 9 9 11 12 12 13 14 15 15 15 17 17 15 15 15 16 17 16 15 16 16 16 16 16 17 17 17 17 17 17 17
2 6 7 5 3 2 2 1 2 2 2 2 3 2 4 5 6 6 7 3 5 11 10 10 12 10 2 1 3 2 2 1 5 11 15 25 23 22 21 19 18 15 15 15 14 14 13 12 11 9 7 8 9 10 12 13 14 13 12 10 12 14 16 15 13 12 8 7 10 11 12 12 12 13 14 15 16 16 15 15 16 16 17 16 15 16 16 16 16 16 16 16 16 16 16 16 16
4 8 8 5 3 2 2 1 1 2 2 1 2 5 6 6 7 6 6 6 10 12 9 11 9 7 5 2 1 1 2 3 8 13 19 22 18 22 22 20 19 15 17 16 15 14 13 13 11 9 7 7 9 9 11 13 13 13 12 12 12 13 16 17 14 12 9 6 7 9 10 10 10 12 13 14 14 15 15 14 15 16 16 16 16 15 15 15 15 15 15 15 15 15 15 15 15
6 8 7 4 3 1 1 1 0 3 1 1 1 6 8 6 7 8 8 9 13 9 7 11 4 6 6 2 1 1 3 6 9 13 17 19 19 23 21 21 19 17 19 18 16 14 13 13 11 9 7 7 8 8 10 12 13 12 12 12 12 14 16 17 14 12 9 5 4 6 6 7 9 11 12 13 15 15 14 14 15 15 16 16 16 15 14 14 15 15 15 14 14 13 13 14 14
7 6 5 4 2 2 2 1 2 3 2 1 1 5 8 7 8 11 11 10 9 6 9 9 3 6 4 2 3 2 7 8 9 13 15 20 23 23 21 21 19 18 19 18 16 14 13 13 11 9 7 7 8 8 9 11 12 12 12 12 12 15 18 16 13 11 9 6 4 4 5 5 7 10 11 13 14 14 14 14 15 15 15 16 15 15 15 15 15 15 14 14 13 13 13 13 14
8 5 5 5 3 1 2 1 1 2 2 2 3 3 8 9 11 14 13 9 5 5 9 7 4 5 2 2 2 5 12 10 11 14 16 22 25 23 22 20 19 19 18 18 16 14 14 12 12 9 7 7 7 7 8 10 12 12 11 12 12 13 16 14 12 11 8 5 4 5 6 7 8 9 11 13 14 14 14 14 14 14 15 15 15 15 15 15 15 14 14 13 13 12 13 13 13
8 3 2 4 2 1 1 1 0 0 2 1 3 1 5 10 13 14 12 7 5 6 8 7 6 5 2 4 2 4 11 13 15 18 21 25 26 23 23 21 20 20 18 18 16 15 14 13 12 10 8 6 7 7 8 9 10 11 11 11 11 11 12 12 11 9 7 6 8 8 8 8 9 10 10 12 14 14 14 14 14 15 15 15 15 15 15 15 15 14 13 12 12 12 12 12 12
7 3 2 3 1 1 1 1 1 1 0 0 1 1 1 8 10 12 12 5 4 7 7 7 8 5 4 5 2 3 9 15 19 21 24 26 25 24 23 21 21 21 19 18 17 15 15 13 12 10 8 6 7 6 7 8 9 10 11 10 11 11 11 11 10 9 8 9 10 9 9 9 9 10 11 12 14 14 13 14 14 15 15 15 15 15 15 15 15 14 13 13 12 12 11 11 12
4 3 3 2 1 2 2 2 2 0 1 1 1 1 3 9 8 9 11 5 5 7 8 9 7 4 6 6 3 5 10 16 21 23 24 25 25 24 23 22 21 21 20 19 18 16 15 14 13 11 8 7 7 6 6 7 8 9 10 10 10 10 10 11 10 10 10 10 10 10 10 10 10 10 12 14 14 13 13 14 14 15 15 15 14 15 16 16 16 15 14 13 12 12 11 11 11
2 2 3 2 2 3 3 2 3 1 1 1 2 2 5 10 7 7 7 5 6 5 9 11 5 6 6 5 4 7 13 19 24 24 24 25 24 23 23 22 21 20 19 19 18 17 15 14 13 12 10 8 8 7 7 6 7 8 9 10 10 10 10 10 10 10 10 9 9 11 11 10 10 10 11 14 14 13 13 13 14 15 15 14 15 16 16 16 16 16 15 14 13 12 11 11 11
2 2 2 3 2 1 1 2 3 2 1 2 3 5 8 11 7 8 7 5 7 5 9 9 4 7 6 4 5 9 15 21 24 24 24 24 23 23 22 21 21 20 19 18 18 17 16 14 13 12 10 9 8 7 7 7 7 7 8 9 9 9 9 9 10 10 10 10 10 11 11 11 11 10 10 12 13 13 13 13 14 15 15 14 15 15 16 15 15 15 15 15 15 13 12 11 10
3 2 3 2 1 1 1 1 3 1 2 4 3 7 12 11 7 8 8 5 7 5 7 9 4 5 4 5 7 11 17 21 24 24 24 24 23 22 22 21 21 20 18 18 17 17 17 15 13 12 11 9 8 8 7 7 6 6 7 7 8 9 9 9 9 9 10 10 11 11 11 10 10 10 10 10 11 12 12 12 13 13 14 14 14 14 14 14 14 15 15 16 16 14 13 11 10
5 3 1 2 1 0 1 1 3 3 4 4 4 11 14 9 5 6 7 5 7 4 6 11 7 4 4 5 7 12 18 22 23 24 24 23 22 22 21 21 20 20 18 17 17 17 17 16 14 12 11 10 8 7 7 6 6 6 6 6 7 8 8 8 8 8 9 10 11 11 11 10 9 9 9 10 10 11 11 11 12 12 12 12 12 11 12 12 13 14 14 15 15 15 13 11 9
7 5 2 2 2 1 2 0 2 3 3 5 6 13 13 7 6 6 6 5 4 5 5 9 8 2 3 4 7 14 20 23 24 23 24 22 22 21 21 20 19 20 19 18 17 17 17 16 15 14 12 11 10 8 7 6 6 6 5 5 5 6 7 7 7 7 7 8 10 10 10 10 9 9 9 9 9 10 10 9 9 10 10 10 10 9 9 10 11 12 13 14 14 14 13 11 9
8 6 2 2 2 2 3 1 2 3 3 5 9 14 10 5 7 7 6 4 3 6 6 7 11 3 1 4 6 16 22 23 24 23 24 23 23 22 21 21 20 20 20 19 18 17 17 16 16 15 14 13 12 10 8 7 7 6 6 5 5 5 5 6 6 6 6 7 8 8 9 9 8 8 8 8 8 8 9 8 7 7 8 8 8 7 8 8 9 10 11 12 13 13 12 10 9
8 4 1 2 2 2 4 5 4 2 4 6 10 14 10 5 7 6 6 6 3 7 8 7 12 7 3 5 5 16 23 23 24 23 24 24 23 23 22 22 21 21 21 20 20 18 18 17 16 16 16 15 13 12 11 9 9 8 7 6 5 5 4 4 5 5 5 5 6 6 7 7 7 7 7 7 7 7 7 7 7 6 6 6 6 6 6 6 7 8 9 11 11 11 11 10 9
6 2 2 2 2 2 4 7 4 1 5 9 11 14 10 7 8 6 5 7 4 6 10 8 10 9 6 6 5 15 23 24 26 24 25 26 25 25 24 24 23 23 22 21 21 20 19 18 17 17 16 16 14 13 12 12 10 9 8 7 6 5 5 4 4 3 4 4 4 4 5 5 5 5 6 5 6 6 6 6 6 5 5 4 4 4 4 5 5 6 7 9 9 9 9 9 9
3 1 2 3 2 1 2 5 5 1 5 11 12 15 10 6 9 8 5 5 5 6 9 9 9 10 9 7 6 15 22 24 26 26 26 28 28 28 27 26 25 24 24 23 22 21 20 19 19 18 17 16 15 14 14 13 12 11 10 8 7 6 5 5 4 3 3 3 3 3 3 3 3 4 4 4 4 4 4 4 4 4 4 3 2 2 3 3 3 4 5 7 7 7 7 7 7
2 3 3 2 2 1 1 5 6 3 6 11 11 14 9 5 9 9 4 3 5 7 8 9 10 13 13 10 7 13 20 23 26 27 26 28 28 28 27 27 26 26 25 23 23 22 21 20 20 19 18 17 15 15 15 14 14 13 12 10 9 8 7 6 6 5 4 3 3 2 2 2 2 2 3 3 3 3 3 3 3 3 3 3 2 1 1 1 2 3 4 5 5 5 5 5 5
2 3 1 3 4 2 3 6 7 4 6 10 11 12 8 6 10 8 5 4 6 9 11 11 11 13 16 14 10 11 18 22 25 27 27 27 28 26 25 25 25 25 25 24 24 23 22 22 21 20 19 18 17 16 16 15 15 15 14 12 11 10 9 8 8 7 6 5 4 4 3 2 2 2 2 3 3 3 3 3 3 3 2 2 3 2 2 1 1 2 2 3 3 4 4 4 3
4 1 3 3 4 2 5 7 7 6 7 11 12 11 9 9 9 8 8 6 3 4 9 13 13 12 14 16 15 12 16 21 24 27 28 27 28 26 23 22 23 24 26 26 25 24 23 22 22 21 20 19 18 17 16 16 16 16 16 14 13 12 11 10 10 9 9 8 7 6 5 4 3 3 3 3 4 4 4 5 4 4 4 4 4 4 4 3 3 3 2 2 2 3 3 3 3
4 2 2 4 2 1 6 7 7 8 8 10 11 9 10 10 6 9 13 11 5 2 3 7 11 13 12 14 17 15 15 19 22 24 25 25 26 26 24 22 23 24 26 26 25 24 24 23 22 22 21 20 19 19 18 17 17 17 17 16 15 14 13 12 12 11 11 10 9 8 7 6 6 5 5 5 5 6 6 6 6 6 6 5 6 6 5 5 5 4 4 3 4 4 4 4 4
2 3 3 5 4 2 6 7 7 9 8 10 12 10 9 10 6 7 14 16 14 9 4 1 4 9 13 13 15 16 14 15 18 20 22 23 24 25 23 20 21 23 26 26 25 24 24 23 23 22 22 21 21 20 20 19 18 18 18 17 16 16 15 14 14 13 12 12 11 10 10 9 8 8 7 7 7 7 7 7 7 8 8 7 7 7 7 7 7 6 6 5 5 5 5 5 5
1 4 6 6 5 4 6 6 8 9 8 10 12 8 6 10 7 5 11 14 16 16 13 7 3 4 11 15 14 15 15 15 17 21 22 23 23 23 22 19 19 22 25 25 24 24 24 23 24 23 22 22 22 21 21 20 20 19 19 18 18 17 16 16 15 15 14 14 13 12 12 11 10 10 10 9 9 8 8 8 9 9 9 9 10 9 9 8 8 8 7 7 7 7 7 7 7
3 7 9 8 6 7 7 6 7 8 9 11 10 5 4 8 6 6 11 12 13 16 17 16 13 9 9 13 16 15 15 15 17 19 21 22 23 23 22 22 22 23 23 23 23 23 23 23 24 23 22 22 22 22 22 22 21 21 20 20 19 18 17 17 17 16 16 16 15 14 14 13 13 12 12 12 11 10 10 10 10 10 10 11 11 11 10 10 10 9 9 8 8 8 8 8 9
11 13 11 9 8 7 6 6 7 8 10 10 7 4 3 5 4 4 7 10 12 14 16 17 17 16 13 12 15 16 16 16 17 18 20 22 22 22 21 22 22 22 22 22 22 22 22 23 23 23 23 22 23 23 23 22 22 22 21 20 20 19 18 19 18 18 18 17 17 16 16 15 15 15 14 14 13 13 12 12 12 11 12 11 12 12 12 11 11 11 10 9 9 9 10 10 11
18 19 13 9 8 8 5 5 7 5 5 6 6 4 3 4 4 4 6 6 6 8 13 16 16 17 17 14 14 17 17 17 18 19 20 20 20 19 20 20 21 21 21 22 22 22 22 22 22 22 23 23 24 24 23 23 23 22 22 21 21 20 19 20 20 20 20 19 19 18 17 17 17 17 16 15 15 15 14 13 13 13 13 13 13 13 13 13 12 12 11 10 10 10 11 12 12
17 13 8 6 5 5 4 2 3 1 2 7 7 3 4 6 6 6 9 9 7 6 7 12 16 16 17 17 16 16 18 19 19 19 18 18 18 18 19 19 20 20 20 21 21 22 21 21 21 21 22 23 23 24 24 24 23 23 23 23 22 22 21 21 21 21 21 21 20 20 20 19 19 19 19 18 17 17 16 15 15 15 14 14 14 14 13 14 13 12 12 11 11 11 13 13 14
11 4 2 5 5 3 3 3 0 1 3 7 6 2 4 7 7 7 9 9 9 8 6 8 13 15 17 18 18 16 17 19 20 18 18 18 18 18 19 19 19 19 19 20 20 20 20 20 21 21 21 21 22 22 23 24 23 23 23 23 23 23 24 24 23 22 23 23 22 22 22 21 21 21 21 20 19 19 18 17 17 17 16 17 16 15 16 16 16 15 14 13 13 14 15 15 16
6 3 2 3 5 4 3 3 1 2 4 6 4 4 3 4 3 6 9 10 9 9 7 8 11 14 16 17 19 18 17 18 19 19 19 19 19 19 19 19 19 20 19 19 19 19 19 19 20 20 20 20 21 21 21 23 23 23 23 23 24 24 25 25 25 25 24 24 24 24 25 24 23 23 23 22 21 20 20 19 18 18 18 18 18 18 19 19 18 17 16 16 16 16 17 17 17
2 3 4 1 4 3 3 3 2 0 3 3 3 4 4 1 3 4 6 8 11 11 9 10 11 13 16 17 19 20 19 18 18 20 20 20 20 19 19 19 20 20 19 19 19 19 20 20 19 19 19 19 19 19 20 21 22 23 23 23 24 25 25 24 24 25 25 26 26 26 27 26 26 26 25 24 23 22 22 21 20 19 19 19 20 20 21 20 19 18 17 17 16 17 18 18 18
0 2 3 2 3 3 3 2 3 2 1 3 2 2 2 1 1 3 4 3 6 8 10 12 13 13 15 17 18 20 21 21 20 21 21 21 21 20 19 19 20 20 20 21 21 21 20 20 20 20 19 19 19 19 19 20 21 21 22 22 22 24 25 24 23 24 26 26 25 26 26 26 26 26 25 25 26 25 23 22 22 21 21 21 21 20 21 21 21 20 19 18 17 19 19 20 20
3 1 1 1 3 4 3 3 2 2 1 3 1 3 5 1 2 4 5 2 2 5 7 10 13 14 14 16 17 20 22 23 24 23 22 21 20 19 19 20 20 21 22 22 22 22 22 22 22 21 20 20 20 20 19 20 20 21 22 22 22 22 23 24 24 23 24 24 23 24 24 22 21 22 23 23 25 25 23 22 22 22 22 22 21 21 21 22 22 22 23 22 21 22 22 22 23
8 5 3 2 2 3 2 3 2 0 2 4 2 4 10 7 5 6 7 9 9 10 10 10 13 14 14 16 18 20 22 24 25 25 23 23 22 21 21 21 22 22 22 23 23 24 24 24 24 23 22 22 22 21 21 21 21 22 22 23 24 23 22 23 23 22 22 22 23 23 21 19 19 20 21 23 24 23 22 23 21 20 21 22 21 21 22 23 23 23 24 25 25 25 25 25 25
9 7 5 5 5 3 1 2 2 0 3 6 6 7 10 9 9 9 10 11 12 13 15 16 16 17 17 17 19 20 21 23 23 23 24 24 24 23 23 23 23 23 23 23 24 25 25 25 25 25 24 23 23 24 24 23 23 23 23 23 24 24 23 23 23 23 22 22 24 25 22 18 20 22 22 24 26 26 26 27 24 21 22 24 25 24 24 24 23 23 23 25 26 28 28 28 28
8 6 3 3 4 3 1 2 2 1 3 6 6 7 10 10 10 11 11 9 11 14 17 19 20 20 20 20 20 20 21 21 20 19 21 23 23 23 23 24 24 24 24 24 25 25 25 25 25 24 24 24 25 25 26 25 25 24 24 24 24 24 24 25 26 25 23 23 26 29 26 20 21 26 24 22 23 23 25 26 25 25 26 27 29 27 26 26 24 23 24 25 28 29 30 29 28
7 6 5 3 2 2 2 1 2 2 3 2 1 5 11 12 11 13 12 9 11 15 15 18 21 21 22 21 21 22 21 22 20 19 19 20 22 23 23 23 23 24 24 25 25 25 25 25 25 24 24 25 25 25 26 26 25 25 24 23 23 24 25 26 27 26 24 26 29 30 29 24 25 29 26 23 24 22 22 24 26 27 25 26 29 30 28 27 26 25 26 27 29 31 32 30 29
5 3 5 4 2 3 2 1 2 1 2 1 1 4 10 11 10 12 13 11 13 16 17 18 20 20 22 22 22 22 23 24 23 21 20 21 22 23 24 24 24 24 25 26 26 26 26 26 25 24 24 25 25 25 26 26 25 24 23 22 22 24 24 24 24 25 27 28 29 29 27 26 28 29 26 25 28 28 25 25 28 28 24 24 28 30 32 30 27 27 28 28 28 29 31 31 30
2 2 4 3 3 3 2 4 3 1 1 1 0 4 8 8 8 9 11 12 15 19 21 22 22 23 24 24 24 24 25 25 25 24 24 24 25 25 26 25 26 27 27 28 28 29 28 27 26 25 25 25 25 25 25 25 25 24 23 22 23 24 24 23 22 24 25 26 27 27 25 24 26 27 26 25 27 30 29 27 30 30 26 25 28 31 34 34 28 28 29 29 28 28 30 30 30
0 2 3 2 5 3 1 5 5 1 1 1 1 5 6 4 5 6 4 5 11 15 16 18 21 23 25 25 26 26 26 27 27 26 26 27 27 27 28 27 28 28 28 29 29 29 28 27 27 26 26 26 25 25 24 24 25 24 24 23 24 24 24 24 24 23 23 23 24 24 23 25 27 28 28 28 28 31 30 27 30 33 28 27 29 30 32 34 31 27 28 29 30 31 33 33 32
2 4 3 1 6 6 4 7 6 3 3 1 2 5 3 0 4 5 0 2 5 6 8 11 13 15 18 21 22 22 23 25 26 25 24 24 26 27 28 29 29 29 29 30 30 29 28 27 27 27 26 26 25 24 24 24 24 24 23 23 23 23 23 23 23 21 20 21 22 23 24 26 29 31 30 31 32 32 30 27 29 32 30 29 29 29 29 32 32 29 29 31 33 36 35 34 35
3 2 2 2 6 8 8 8 4 2 2 2 1 4 3 1 3 2 1 4 5 4 5 7 8 9 11 14 15 16 18 19 21 20 18 19 20 22 24 26 26 27 28 29 30 30 29 28 27 27 26 25 24 24 24 23 24 23 23 22 21 22 22 22 20 18 18 19 20 21 23 24 26 28 28 29 30 29 28 28 29 30 30 29 29 29 28 29 32 32 30 30 33 36 37 38 38
3 0 3 6 8 9 8 6 2 0 1 1 1 2 3 4 2 1 2 5 7 5 3 2 2 3 4 7 10 12 14 15 17 17 15 15 16 17 19 20 20 20 20 22 24 26 27 27 27 26 26 25 25 24 23 23 23 22 22 22 22 22 22 20 18 17 18 19 19 20 21 22 23 24 25 25 26 27 26 26 27 28 30 31 30 29 28 30 34 36 31 28 31 36 37 40 39
0 0 2 5 6 6 5 3 2 2 1 3 1 3 4 5 2 1 2 3 6 5 2 1 1 1 1 1 3 6 9 12 14 15 15 15 15 16 17 17 15 14 13 14 16 18 20 21 22 23 23 23 23 22 22 22 21 22 22 22 21 21 20 18 18 18 18 18 20 21 21 22 23 23 24 24 24 25 24 25 28 30 31 32 33 33 32 32 36 37 33 30 32 35 35 35 36
4 6 5 6 5 5 3 2 3 2 3 4 2 2 4 4 2 1 1 2 5 3 2 1 1 3 5 6 4 1 2 5 9 11 13 15 15 16 16 14 12 11 11 11 12 13 13 14 15 16 18 19 19 19 19 19 19 19 19 18 18 17 16 16 17 17 18 18 19 20 21 21 22 23 24 24 24 24 24 26 29 31 31 32 34 35 34 34 35 36 35 34 35 35 36 36 36
11 8 7 8 4 3 3 2 2 2 3 2 2 2 3 3 2 2 2 1 2 0 3 2 2 5 7 9 9 7 6 6 8 10 11 12 13 13 12 11 10 9 8 8 9 10 10 11 11 12 13 13 14 14 14 14 14 14 13 13 13 13 13 14 15 15 15 16 18 18 19 20 21 22 23 23 24 24 24 26 28 31 33 34 34 34 34 34 34 34 35 37 38 37 37 36 36
6 3 6 6 3 1 2 2 0 4 4 2 2 3 3 5 3 1 1 2 2 1 3 4 3 4 6 8 9 8 9 11 13 14 14 13 13 12 11 10 9 9 9 9 9 9 9 9 9 9 10 10 10 10 10 9 9 8 8 8 9 9 10 11 12 13 14 15 16 17 18 19 20 21 22 23 24 24 25 26 27 29 31 32 33 34 33 32 33 35 36 37 39 39 38 37 38
1 4 7 5 3 2 3 2 2 4 2 2 1 2 3 6 5 5 6 3 4 5 4 2 1 1 3 6 8 8 8 11 14 15 15 15 14 13 13 12 12 12 12 12 11 11 10 10 9 9 9 8 8 7 6 6 6 5 5 5 5 6 8 9 11 12 13 15 16 17 18 19 20 20 21 22 23 23 25 26 27 28 29 30 31 32 31 31 34 37 38 39 41 42 42 41 41
5 6 7 5 5 4 5 3 1 3 0 2 1 1 3 4 5 8 9 3 3 6 8 7 6 4 1 3 5 6 7 10 13 13 14 15 14 15 15 15 15 15 14 14 13 12 11 11 10 9 8 8 7 6 5 5 4 3 3 3 4 6 7 9 10 11 13 14 15 16 17 18 19 20 20 20 21 22 24 26 27 29 30 30 30 30 32 34 35 37 38 40 41 41 41 41 40
3 1 1 4 4 3 4 3 1 1 2 2 1 2 3 2 0 3 5 4 5 9 10 12 11 9 6 2 2 4 7 9 11 12 13 14 14 15 16 16 16 15 14 13 12 12 11 10 10 9 8 7 6 5 4 3 2 1 1 3 4 6 7 8 10 10 12 13 14 15 17 18 18 19 19 19 20 22 24 26 27 29 30 31 32 32 34 35 36 38 38 38 38 38 38 38 38
1 2 0 2 1 2 2 1 1 1 1 1 2 3 3 2 3 4 4 4 7 8 9 11 12 12 10 5 1 4 7 8 10 11 12 13 15 15 16 16 15 14 14 13 13 12 12 12 11 10 10 9 8 7 6 5 3 3 3 4 5 6 8 9 10 10 11 12 13 15 16 17 18 19 19 20 20 22 23 25 26 28 29 31 32 33 34 35 36 36 36 36 36 35 35 34 35
2 2 3 2 1 4 4 2 1 0 3 2 2 4 3 2 5 3 2 2 3 4 5 7 9 10 9 7 4 6 7 9 10 10 12 14 15 16 16 16 15 15 15 15 15 15 14 13 12 11 10 9 9 8 7 7 7 8 8 8 9 10 11 13 13 14 14 15 15 16 15 16 17 18 19 20 21 22 23 24 25 26 27 29 31 32 32 33 33 34 34 33 33 32 33 32 33
2 3 5 4 1 1 2 1 1 1 3 1 1 4 3 2 3 1 1 3 4 4 3 4 5 7 8 7 7 8 8 10 11 11 13 15 16 17 17 17 17 17 17 17 16 15 14 12 11 10 9 7 7 7 7 8 9 10 10 11 11 13 14 15 16 17 18 19 20 19 18 17 17 18 19 20 21 22 23 24 24 24 25 27 29 30 31 31 31 32 31 31 31 31 32 30 31
2 2 4 3 2 2 2 2 2 2 3 2 1 2 3 4 4 2 1 5 5 4 3 3 4 8 11 10 9 9 8 11 13 13 16 17 17 18 18 18 19 18 18 16 15 13 12 10 8 7 6 5 5 7 9 10 11 11 12 12 13 14 14 15 17 18 20 21 22 22 22 21 20 19 20 21 21 21 22 23 23 23 24 24 26 29 30 31 31 31 31 31 31 32 32 30 31
3 2 3 0 1 2 2 2 1 2 3 2 1 1 2 5 5 5 4 3 1 2 4 3 5 10 12 10 9 10 11 14 16 17 18 19 19 19 19 19 19 18 16 14 13 11 9 7 5 4 3 5 7 9 11 12 13 13 13 14 14 15 15 16 17 19 21 22 23 24 25 25 24 23 23 22 22 22 22 23 23 23 23 24 24 26 28 29 30 31 31 31 31 32 32 31 30
3 4 5 3 1 1 1 1 2 1 2 2 2 2 2 2 3 6 5 2 2 1 2 3 6 10 11 9 9 12 15 17 19 19 20 20 20 20 19 19 17 15 13 11 9 7 5 3 1 3 6 8 10 12 13 14 14 14 15 15 16 16 16 18 19 20 22 23 24 26 27 27 26 26 25 25 25 25 24 24 23 23 24 24 24 24 26 27 28 30 30 31 31 31 31 30 29
2 4 5 6 4 3 4 4 1 1 1 1 1 2 2 1 1 4 3 1 1 1 2 3 6 11 10 9 12 16 19 21 21 21 22 21 21 20 19 17 15 12 10 7 5 2 0 2 4 6 9 11 12 14 14 15 16 16 16 17 17 17 18 19 20 22 23 24 25 27 27 27 27 26 26 26 26 27 26 26 26 25 24 24 24 24 25 26 28 29 30 30 30 30 30 29 29
Wind_Direction
177 171 174 178 161 142 95 224 199 80 272 122 116 171 140 98 45 162 157 154 147 156 169 133 152 156 147 152 186 356 354 317 355 335 100 134 152 154 158 164 161 156 152 150 149 139 135 135 133 126 105 89 74 67 58 56 60 70 78 89 95 96 99 97 95 92 81 67 61 65 80 92 92 93 93 92 96 96 94 96 95 87 83 81 79 79 78 79 79 80 81 83 83 84 85 87 88
181 172 169 165 148 181 134 282 259 139 214 150 151 180 116 136 182 181 165 155 106 149 163 139 157 167 178 302 213 263 118 324 359 89 119 142 151 153 156 162 161 157 154 151 147 139 139 139 136 125 107 93 78 70 59 58 61 67 76 89 99 101 100 95 92 89 77 68 68 65 71 89 93 91 93 92 97 98 94 95 94 89 86 83 79 77 77 77 79 80 81 82 82 82 83 84 85
184 176 168 147 114 121 120 221 257 177 211 155 149 130 131 173 185 169 145 107 101 148 155 144 163 173 216 235 201 259 91 18 130 118 134 146 152 155 154 159 159 158 156 151 148 142 143 145 138 128 117 98 82 74 61 60 61 65 72 83 98 103 109 108 101 95 84 70 71 67 69 89 95 90 92 93 95 96 94 93 93 92 89 86 84 81 81 80 82 83 82 81 79 81 82 83 84
182 178 167 142 134 129 126 224 261 216 211 147 137 146 175 189 168 133 106 104 129 142 146 152 164 181 221 282 187 278 106 148 142 132 145 149 156 156 153 158 156 157 155 150 149 142 147 149 143 135 122 103 88 77 66 62 62 66 68 76 92 102 112 114 106 101 100 85 70 66 68 82 92 93 93 91 92 93 92 90 90 92 91 87 86 84 85 86 86 84 83 82 81 82 82 83 83
182 179 166 157 190 135 104 150 130 236 207 134 131 151 186 184 148 126 118 127 134 134 152 164 163 182 211 293 243 280 132 160 159 150 152 154 158 157 154 156 154 156 152 150 148 143 154 152 145 139 125 109 93 82 73 65 64 67 68 73 84 100 111 111 109 108 111 110 86 70 66 74 88 95 93 93 95 93 91 89 87 88 90 88 86 86 86 88 89 86 84 82 82 82 81 82 84
170 161 147 146 147 116 170 180 187 214 56 2 32 140 177 170 143 132 132 134 134 137 156 171 161 163 186 231 219 183 153 162 170 162 158 159 158 157 156 154 153 156 153 152 150 147 156 153 147 141 128 113 98 89 78 70 65 67 71 72 80 102 113 113 115 117 121 119 105 86 75 84 98 100 96 101 102 96 91 89 89 88 90 89 87 86 86 87 88 88 86 84 82 81 82 84 86
159 136 130 136 104 71 222 206 206 197 69 5 1 113 159 152 144 138 144 153 151 154 161 176 164 156 149 155 185 180 170 165 172 167 161 160 157 158 158 155 154 157 157 154 152 153 158 154 151 144 133 118 105 97 84 78 70 70 76 78 82 100 114 120 123 121 126 124 105 90 83 94 109 108 101 102 100 97 94 94 97 95 94 93 92 89 89 89 89 89 88 85 83 82 83 85 88
171 164 174 159 98 347 226 190 227 329 66 12 331 3 143 148 153 151 157 164 163 166 168 177 178 183 138 133 144 192 182 172 175 169 162 161 158 160 159 157 158 161 162 158 156 157 160 159 154 146 141 125 113 104 91 86 75 75 79 85 87 91 103 116 124 122 125 115 99 89 83 93 108 107 101 100 99 98 99 103 103 99 98 97 96 94 94 93 92 91 89 88 87 87 87 89 90
183 192 184 170 150 149 151 199 148 40 80 33 265 262 155 163 165 161 161 155 152 158 164 168 180 193 132 142 131 162 176 172 174 168 163 162 160 162 161 161 162 165 164 162 161 160 163 162 157 150 150 135 121 110 97 90 80 78 79 85 87 84 86 95 106 107 104 95 90 86 83 91 103 104 96 96 99 101 103 105 104 102 103 101 100 99 98 95 92 90 88 88 87 90 91 92 93
190 183 147 148 180 184 182 186 147 128 153 19 278 233 183 174 176 170 160 149 152 155 163 164 171 173 141 145 130 160 172 168 170 168 166 163 162 165 164 163 164 167 166 166 166 163 166 164 160 156 157 147 132 122 108 98 86 80 78 82 84 87 84 82 86 87 91 89 85 85 85 88 100 103 93 92 97 101 103 104 106 107 107 105 103 100 97 93 89 86 84 84 85 89 91 93 94
204 162 149 168 190 199 192 171 153 138 114 302 247 192 182 174 174 168 155 141 155 156 165 170 168 156 148 136 138 178 177 167 168 169 168 166 165 167 166 166 167 170 169 169 170 168 167 167 165 162 163 159 148 139 125 114 103 89 82 82 83 88 86 84 82 80 85 83 80 83 85 86 96 103 93 93 96 100 105 107 107 108 108 106 103 98 94 90 86 83 80 81 82 86 88 91 94
212 138 186 195 190 218 178 157 148 129 128 195 172 165 177 171 173 174 172 155 161 164 169 181 171 155 147 128 159 181 177 170 169 171 170 168 168 169 169 168 169 172 174 174 174 173 171 170 171 169 172 169 160 153 141 131 120 106 95 90 87 89 89 86 83 80 80 78 76 77 82 84 94 103 97 95 97 102 107 109 109 107 108 106 103 99 94 89 85 81 76 75 77 81 85 90 94
213 156 209 177 126 0 138 146 138 133 172 177 149 159 168 170 188 185 175 158 164 169 174 181 159 161 142 117 163 177 178 175 171 172 172 172 171 172 172 172 172 173 177 179 179 179 176 174 174 176 180 177 171 165 154 143 132 123 110 99 92 87 87 85 81 80 78 77 77 76 79 83 91 102 103 99 98 101 100 104 107 106 108 107 104 101 95 89 83 79 73 71 71 75 79 85 91
186 145 195 140 88 114 154 125 154 192 169 139 124 158 165 175 203 183 176 173 175 180 180 181 164 166 158 135 162 173 181 179 174 174 174 175 173 175 177 177 177 175 177 182 185 185 183 179 176 179 182 179 178 178 168 156 145 134 124 110 97 90 86 84 82 80 77 77 77 78 79 81 88 96 100 98 98 98 94 96 102 107 110 107 105 101 96 89 82 79 73 70 68 69 72 77 85
163 125 80 122 136 163 194 335 157 207 161 132 146 161 164 182 193 177 197 200 182 191 178 185 185 180 172 161 160 175 185 181 175 176 177 177 176 178 181 182 182 181 180 183 188 190 190 187 183 182 180 179 181 184 181 174 163 149 140 126 111 99 90 84 82 79 77 78 79 80 81 83 87 91 95 96 98 99 97 96 99 106 107 104 104 101 96 89 82 78 74 70 67 66 68 71 79
154 125 89 140 163 193 196 174 162 204 144 133 155 162 164 184 188 178 207 209 179 200 186 187 197 203 123 158 160 179 185 180 177 178 179 180 179 182 184 188 189 187 186 186 190 192 195 196 193 189 182 183 184 183 187 187 180 170 160 148 136 118 104 94 87 80 77 81 84 86 87 87 87 91 95 97 101 102 104 104 103 104 103 104 105 100 94 88 81 76 72 69 66 65 65 67 72
151 141 174 158 183 205 182 174 175 170 126 137 161 170 173 171 185 189 203 198 187 204 199 198 201 209 164 157 166 180 182 180 180 179 182 184 183 185 188 192 194 194 193 191 192 193 197 201 202 199 192 190 188 186 189 192 191 185 177 168 159 143 129 117 104 92 85 84 88 94 93 91 94 98 100 103 107 110 112 112 111 109 106 105 101 96 90 85 79 72 70 68 67 66 64 64 65
156 156 187 176 181 186 180 177 167 121 141 157 173 183 183 169 176 182 184 188 198 209 209 212 204 207 188 168 166 179 181 181 183 184 185 189 189 190 192 195 198 199 199 197 196 196 199 201 205 206 201 197 193 192 191 195 196 191 189 185 177 168 160 149 138 123 106 94 91 99 102 103 108 111 113 115 116 119 122 120 118 118 114 110 104 91 80 79 72 66 66 67 68 66 66 65 64
138 117 195 194 174 134 165 169 151 82 143 152 169 183 187 173 168 176 183 177 188 206 209 217 215 208 194 181 170 178 184 184 186 190 190 192 195 195 196 198 202 204 204 203 200 200 202 202 205 206 206 203 200 198 197 200 200 197 197 194 193 189 184 182 175 168 152 128 110 108 109 122 133 133 134 131 128 128 131 131 128 129 126 126 122 80 60 62 57 56 61 65 65 64 66 67 69
122 176 203 172 144 95 155 170 152 107 130 146 159 175 180 165 165 179 192 164 192 218 209 208 219 215 202 192 181 181 189 189 190 194 196 197 199 200 200 201 203 206 208 208 205 205 205 205 206 206 207 206 205 205 204 205 204 204 203 201 204 202 200 200 198 198 196 184 162 148 137 150 164 165 163 157 159 154 150 150 147 148 140 135 141 116 40 28 23 34 45 55 55 53 57 59 62
141 181 245 116 145 142 158 177 172 145 141 152 150 160 172 171 174 177 179 182 208 228 224 215 220 216 208 204 199 192 194 195 195 197 201 202 203 203 204 205 205 208 211 212 210 210 210 209 209 208 208 208 208 209 209 210 209 208 208 207 208 210 211 210 210 212 212 213 207 196 192 194 201 206 204 201 199 201 198 196 198 192 181 169 179 208 231 265 300 339 9 30 34 34 38 40 40
133 148 5 91 154 155 156 175 181 167 150 154 149 157 169 168 180 185 193 217 217 230 234 229 232 224 216 212 210 204 200 202 201 201 204 206 208 207 206 207 207 209 212 213 213 213 214 214 212 211 211 211 212 211 213 215 214 213 213 212 212 214 216 216 217 219 220 221 221 220 217 213 217 226 231 229 225 223 221 218 221 223 221 214 214 226 236 253 268 283 302 322 341 355 4 11 10
156 137 59 108 132 109 154 170 176 165 151 155 158 161 165 164 183 199 209 228 232 256 261 235 234 227 221 217 216 213 207 207 207 207 209 210 212 212 211 210 210 211 214 214 215 216 217 217 217 215 214 214 215 215 216 217 218 218 218 217 216 218 220 222 223 223 224 226 227 228 228 228 226 229 235 240 239 235 234 229 228 231 234 232 234 240 242 249 258 268 278 286 299 313 328 339 341
170 129 141 124 101 113 155 169 170 166 160 161 165 160 162 174 184 204 222 233 233 238 247 235 233 221 218 217 219 220 219 216 213 214 214 214 216 216 215 214 213 215 217 217 217 217 218 220 221 220 218 217 218 219 219 220 221 221 222 220 218 221 223 224 227 229 229 228 230 231 232 235 234 236 238 241 245 245 244 240 237 236 238 241 242 245 247 250 255 261 270 276 284 295 305 314 318
160 130 152 128 99 117 136 149 157 163 165 161 162 154 162 186 191 215 233 236 235 237 238 240 257 231 218 217 219 220 223 222 218 216 217 217 218 219 217 216 216 217 219 219 219 219 219 220 223 224 222 221 221 222 223 224 224 224 226 226 222 223 225 227 229 231 232 232 232 233 234 238 240 242 243 244 246 249 250 249 247 244 243 244 244 247 249 252 254 256 263 269 276 283 290 297 300
153 129 140 132 104 113 116 125 142 152 154 153 154 138 152 183 199 239 241 243 239 237 241 242 245 251 235 221 221 221 223 224 221 219 218 219 220 221 221 221 221 221 221 221 221 222 221 222 224 227 227 226 226 225 225 227 227 227 228 230 230 226 226 230 231 232 234 235 235 235 236 239 241 244 245 247 248 249 250 251 252 251 249 248 247 248 250 252 254 256 259 263 269 275 280 284 288
139 124 115 114 109 111 114 127 132 133 141 154 157 135 132 161 191 236 228 235 238 234 238 241 243 245 244 232 224 223 224 225 224 223 221 220 220 220 220 222 223 223 223 223 223 223 223 224 225 228 230 230 230 230 230 229 230 231 231 233 235 232 230 231 234 234 235 236 237 238 238 240 242 245 247 248 250 251 251 251 252 253 253 252 251 251 251 253 254 255 259 262 267 271 277 279 281
135 126 104 95 106 101 87 125 133 123 136 159 151 124 111 143 202 222 190 199 220 227 231 234 239 240 239 237 230 226 225 224 225 225 223 221 220 218 216 217 219 220 221 223 225 225 225 226 227 229 231 232 232 233 234 233 233 234 235 235 238 238 235 235 234 235 237 237 238 239 240 241 243 246 248 249 251 253 252 252 253 253 254 254 252 253 254 256 257 258 260 263 268 274 279 282 284
135 131 114 106 128 104 57 79 146 143 150 152 143 149 189 193 212 203 194 211 225 233 234 229 233 235 235 234 232 230 228 226 226 225 223 222 222 221 219 219 220 220 220 223 225 227 227 228 230 230 231 233 233 234 236 237 237 237 237 238 240 241 241 240 237 237 239 239 240 241 241 242 244 246 248 248 250 251 252 253 254 256 257 258 258 256 256 258 259 259 261 262 267 276 279 282 285
138 133 133 135 169 157 41 2 274 169 156 152 155 229 208 197 213 201 200 218 228 235 239 232 230 231 234 234 234 235 232 229 228 226 223 222 222 223 224 225 226 226 226 226 228 229 230 231 232 232 232 234 234 235 237 239 240 240 240 240 241 242 243 243 241 240 240 240 241 241 242 243 244 247 249 250 251 251 252 253 254 255 257 262 264 264 263 263 262 259 260 259 259 266 272 277 280
133 140 182 155 190 176 70 18 337 172 164 162 184 252 221 159 180 209 221 226 228 228 227 232 232 230 233 234 235 237 237 235 231 229 226 224 223 223 225 227 228 231 232 231 232 233 234 235 236 236 236 237 238 238 239 242 244 244 244 244 245 245 246 245 244 243 241 241 241 241 242 242 242 244 247 251 253 254 255 255 254 255 255 259 263 267 266 265 263 262 262 260 260 263 267 272 278
93 163 172 183 214 168 92 44 2 180 165 174 197 246 250 183 144 190 226 233 229 227 227 232 233 235 237 237 237 238 239 239 236 232 228 226 226 225 226 227 229 231 232 234 235 236 237 238 238 239 239 239 240 240 241 244 246 247 249 249 248 248 248 247 246 246 244 243 242 242 242 242 243 243 244 247 250 253 255 257 258 259 258 257 261 264 266 265 266 269 267 259 258 264 266 269 274
239 226 160 159 198 175 146 102 17 354 150 202 223 273 266 88 126 181 173 177 206 224 233 235 237 241 242 241 240 240 239 239 237 233 229 228 227 227 228 230 232 233 234 235 237 238 238 240 241 241 241 242 243 243 244 245 246 248 251 253 252 248 247 247 247 247 249 249 248 247 245 244 246 246 245 247 250 251 253 256 258 259 259 259 260 263 264 265 266 269 267 255 252 260 263 265 269
167 259 108 152 194 179 175 140 54 359 235 217 218 272 253 174 128 184 175 175 250 257 251 241 241 243 243 244 244 243 242 240 236 231 229 229 227 228 233 235 237 237 237 237 239 240 240 242 244 243 243 245 246 247 248 248 249 249 250 253 254 251 249 249 247 244 248 252 254 256 252 246 247 247 245 246 251 253 253 255 257 258 257 258 261 262 262 261 260 263 263 257 253 257 259 262 266
175 183 158 153 205 217 209 144 127 43 212 224 196 244 254 247 240 235 237 263 280 278 270 257 246 244 242 244 248 248 246 242 237 233 231 233 233 234 238 239 239 238 238 238 239 241 241 242 244 244 244 245 247 248 249 249 249 248 249 250 250 250 250 252 249 244 247 253 258 261 255 247 250 250 245 244 248 251 251 249 251 258 257 254 257 258 261 261 260 263 263 259 257 257 259 262 266
175 169 152 153 168 206 240 96 72 221 200 218 217 233 254 256 257 256 250 261 273 273 272 266 256 251 247 246 249 251 250 245 239 236 234 235 236 236 237 237 237 236 236 237 237 239 240 241 243 242 242 244 246 247 247 248 248 249 250 251 252 253 255 258 258 254 256 260 263 266 262 253 251 251 254 253 247 247 252 248 246 260 261 254 254 255 259 263 265 268 267 265 262 261 261 262 265
148 147 142 153 166 170 121 94 55 5 221 218 223 247 263 261 262 265 260 260 263 263 264 262 258 255 253 251 250 250 250 249 244 239 235 234 234 234 234 234 234 234 233 233 234 236 237 239 242 242 243 245 245 246 247 247 248 249 250 253 256 258 258 259 261 262 263 260 261 266 268 263 254 253 260 261 251 248 251 247 248 261 262 256 254 254 257 258 261 266 269 270 268 264 262 263 267
137 160 159 162 204 141 94 106 80 50 241 210 169 257 259 256 258 260 257 250 246 247 247 252 254 253 254 253 252 250 249 249 248 242 235 233 233 233 233 233 233 233 233 233 234 236 237 239 241 242 243 245 245 246 248 248 248 250 251 254 256 256 254 255 257 257 256 252 254 262 266 260 254 254 257 258 254 254 252 248 251 259 262 260 254 253 255 253 254 260 266 272 271 267 264 263 269
130 152 161 173 175 125 109 138 101 69 246 211 117 255 261 256 255 253 246 240 243 244 243 246 249 249 250 249 250 250 248 248 247 243 240 237 236 235 234 235 236 237 238 238 239 240 240 239 240 241 242 244 245 245 247 249 249 250 251 252 254 254 253 253 252 249 248 248 251 256 256 249 247 251 256 258 253 255 258 254 253 254 257 262 258 257 255 249 252 263 271 274 271 267 265 265 272
125 142 165 167 152 160 187 162 140 67 353 321 256 265 272 258 250 247 239 240 248 251 250 249 248 248 249 248 248 248 247 248 247 244 242 241 241 241 240 240 242 243 243 243 242 242 241 240 239 240 241 243 245 244 244 246 248 249 249 248 250 252 253 254 253 250 249 251 251 253 252 250 251 252 255 258 250 251 256 253 254 253 254 264 267 265 258 249 254 271 277 275 269 266 267 269 273
352 205 178 145 165 193 13 123 138 136 148 0 320 268 266 247 243 239 229 243 250 253 255 253 251 251 252 252 252 251 251 251 251 249 246 245 245 245 245 245 246 246 246 245 243 241 240 238 237 237 239 241 241 241 241 241 243 244 245 245 245 248 251 254 255 257 258 257 258 259 257 253 254 254 252 250 248 251 252 255 260 255 255 267 269 268 262 250 254 272 276 274 271 268 268 269 270
201 227 214 201 172 153 102 129 145 181 189 82 344 263 247 136 248 234 230 318 254 246 253 255 253 252 253 255 256 256 254 253 253 252 250 249 248 246 246 246 247 248 247 245 242 238 235 233 233 234 235 236 237 237 237 238 240 242 243 245 246 249 253 255 257 262 264 261 261 260 256 250 250 253 252 249 250 253 252 256 261 256 257 267 265 265 265 253 255 269 273 272 273 272 270 267 266
187 212 175 152 150 133 133 153 166 202 189 78 341 258 255 302 257 217 4 305 276 252 242 254 251 245 252 256 258 258 255 252 252 251 247 243 240 238 238 240 244 248 248 246 241 236 232 230 230 231 232 233 233 235 236 237 240 242 245 248 250 253 256 259 261 262 259 256 255 252 250 249 248 249 250 249 251 254 252 251 254 257 260 264 262 262 262 259 261 267 269 271 273 273 269 264 264
177 156 140 144 140 138 147 155 158 42 83 128 66 316 280 274 264 37 348 288 273 254 216 233 246 240 257 261 263 260 255 252 248 244 238 232 229 226 227 232 238 244 245 243 238 233 230 230 231 232 233 233 233 234 236 238 241 245 248 249 251 254 256 261 262 258 254 252 252 249 246 246 244 244 246 247 248 250 250 249 251 258 261 260 262 262 260 263 265 264 266 272 275 275 271 266 265
147 132 139 136 122 121 136 133 110 58 267 207 103 22 267 255 245 11 347 285 262 246 175 116 88 63 36 318 279 264 252 246 239 234 228 223 223 219 218 221 225 229 231 229 227 227 228 230 233 234 233 233 233 235 237 240 243 245 247 249 251 255 259 262 263 260 258 256 254 254 251 248 246 245 244 245 246 246 248 251 257 262 263 260 261 263 264 265 266 265 268 274 277 277 276 271 267
141 150 112 94 84 82 91 89 109 106 254 221 103 17 263 259 246 184 24 278 254 242 119 73 68 71 70 74 65 66 205 219 216 213 212 211 211 208 206 207 210 215 216 215 214 216 219 222 225 227 227 228 229 233 236 239 241 243 246 250 254 259 262 263 263 264 263 260 260 259 257 255 252 250 247 246 247 247 246 248 253 256 258 258 258 260 263 264 265 266 269 273 273 272 273 270 268
141 151 112 94 73 61 69 40 81 181 243 210 70 347 277 269 263 205 188 239 264 180 119 132 118 89 80 76 73 81 101 125 146 157 169 177 181 184 187 190 192 194 191 189 191 193 196 199 202 206 210 215 220 225 230 233 236 241 245 250 254 257 259 260 263 267 268 266 266 265 263 260 256 252 250 248 246 247 246 244 245 248 252 257 259 260 261 261 263 265 267 269 269 268 270 270 270
141 164 131 110 83 78 108 71 113 225 225 108 46 322 259 239 245 177 221 238 246 213 132 127 119 99 85 75 74 84 100 113 122 128 133 141 149 154 158 161 159 157 158 159 163 165 169 173 177 184 190 199 206 211 216 219 222 227 231 237 243 248 254 261 267 271 272 271 269 268 265 261 257 253 250 249 247 246 246 246 245 246 249 253 256 258 259 260 262 265 265 266 268 270 271 271 271
206 161 150 143 129 156 195 178 202 232 224 65 352 294 243 242 259 269 261 233 203 224 214 188 253 143 88 74 77 89 107 118 122 123 125 129 133 136 137 137 137 136 136 137 137 138 141 145 149 157 164 171 178 180 183 186 191 200 212 227 241 253 262 271 275 276 276 276 274 272 269 265 262 258 254 252 251 249 248 248 248 248 249 251 254 257 259 260 261 262 263 264 266 268 269 269 269
185 161 163 170 147 167 198 176 246 256 204 60 291 281 248 246 265 257 250 228 181 227 241 252 261 252 243 62 71 92 119 128 127 127 128 129 131 131 133 133 131 130 127 126 127 128 131 134 138 143 147 152 156 158 164 169 180 198 216 238 251 262 270 274 277 280 281 281 281 279 276 274 270 267 263 259 256 253 250 250 249 248 249 249 251 253 255 256 256 257 259 261 263 265 267 268 267
182 151 162 180 165 187 198 176 215 216 106 95 177 242 232 197 120 249 253 276 261 248 249 254 256 252 252 278 59 110 138 139 136 135 134 134 135 134 135 134 131 129 127 127 128 130 132 134 135 136 136 137 137 138 141 145 153 191 251 267 270 272 273 274 276 278 280 282 283 282 281 280 278 276 272 267 261 257 254 253 252 251 251 250 249 249 250 252 253 255 258 260 263 265 266 267 267
161 11 97 212 179 122 111 104 155 107 86 152 184 246 257 265 290 265 242 264 261 248 244 247 251 251 246 246 190 152 161 156 151 146 142 141 140 139 138 136 133 131 130 130 130 130 129 126 124 120 116 111 106 99 87 76 59 30 359 328 314 307 301 298 295 291 288 285 283 283 284 284 284 283 280 276 269 263 260 258 258 258 257 255 252 251 251 253 254 256 258 261 262 264 265 267 269
152 155 178 191 65 102 113 124 89 7 250 193 165 253 272 287 281 267 178 214 228 212 219 227 238 244 237 227 201 183 179 172 163 152 148 147 142 141 139 136 135 133 133 131 128 126 123 119 115 108 102 95 84 71 55 42 28 14 0 347 335 328 324 321 317 312 306 302 298 293 289 286 284 284 282 278 273 270 267 264 262 262 262 262 261 258 256 256 256 257 258 260 263 265 267 269 271
147 176 160 137 85 93 122 160 117 159 247 217 165 244 265 233 250 333 88 216 206 182 197 206 209 216 208 196 191 191 183 174 168 156 150 148 143 142 141 138 138 136 134 132 128 125 121 114 108 99 89 77 62 41 23 12 3 355 347 340 333 328 324 321 318 315 312 311 308 303 297 289 283 279 276 272 270 269 268 267 265 264 265 266 268 266 264 261 260 260 261 262 264 265 266 269 270
15 167 136 128 205 194 167 180 165 180 226 243 208 246 267 219 215 302 244 214 209 183 172 186 185 187 186 182 188 194 178 167 164 154 150 149 146 145 143 142 141 138 137 135 131 128 122 114 103 90 71 47 22 1 351 345 340 337 332 327 322 318 314 310 306 305 304 305 304 302 300 297 291 283 278 273 269 267 265 265 265 266 266 267 270 271 270 269 266 264 263 262 263 264 265 267 268
40 120 135 355 293 202 187 163 170 211 205 229 252 215 238 215 213 240 226 193 188 164 163 190 187 179 182 184 187 187 170 161 159 153 151 150 148 148 147 145 143 141 140 137 135 132 124 116 98 66 23 356 344 338 336 332 328 324 320 316 312 308 303 298 295 294 295 296 296 296 296 296 294 289 284 279 274 270 266 264 263 264 265 266 268 271 272 273 271 269 266 264 263 263 263 264 265
138 164 169 176 113 51 245 123 65 262 193 197 240 239 236 211 203 226 223 101 68 163 185 202 188 178 181 185 182 174 162 157 155 153 152 152 151 151 149 148 146 144 143 140 139 138 132 125 41 347 335 332 330 328 326 322 319 316 314 311 307 303 299 294 292 290 290 290 290 291 291 292 293 292 290 285 279 274 268 265 263 262 263 264 266 268 271 273 273 272 271 270 268 266 265 265 265
165 187 184 175 150 134 187 193 123 14 236 190 225 267 263 192 172 230 234 106 126 221 257 231 193 185 183 177 169 163 158 156 155 155 155 154 154 152 150 150 148 146 146 144 142 140 132 315 317 318 321 324 323 322 319 316 315 312 311 309 304 300 295 290 288 286 286 287 287 288 289 290 293 294 293 290 285 280 274 269 266 263 263 263 264 266 269 271 273 274 274 274 274 273 273 273 271